Meteo Giornale » Osservazioni meteo Austria » Vienna-Schwechat

ore: 15:50 - Osservazioni Meteo Vienna-Schwechat
Lat. 48° 7' N Lon. 16° 34' E Alt. 183 metri s.l.m.

sereno Europe/Vienna

27 °C

Sereno

Temp. 24 Ore

17 °C

27 °C

Nord

3.7 Km/h

Dew point 14 °C

Umidità 44 %

Visibilità  10 Km

Il sole sorge alle ore 05:57

Il sole tramonta alle ore 19:54

Data e Ora Cielo e Fenomeni T °C DP °C Um. % Pres. hPa Vis. km Vento km/h
Oggi h: 15:50 sereno Sereno 27 14 44 1024 10 N 3.7
Oggi h: 15:20 sereno Sereno 26 14 47 1024 10 N 5.5
Oggi h: 14:50 sereno Sereno 26 14 47 1025 10 N 5.5
Oggi h: 14:20 sereno Sereno 26 14 47 1025 10 NO 11.1
Oggi h: 13:50 sereno Sereno 26 14 47 1025 10 N 7.4
Oggi h: 13:20 sereno Sereno 25 14 50 1025 10 N/NO 11.1
Oggi h: 12:50 molto_nuvoloso Molto Nuvoloso 24 14 53 1025 10 NO 9.3
Oggi h: 12:20 molto_nuvoloso Molto Nuvoloso 24 14 53 1026 10 N 7.4
Oggi h: 11:50 molto_nuvoloso Molto Nuvoloso 23 14 56 1026 10 NO 11.1
Oggi h: 11:20 molto_nuvoloso Molto Nuvoloso 22 14 60 1026 10 N/NO 9.3
Oggi h: 10:50 molto_nuvoloso Molto Nuvoloso 22 14 60 1026 10 NO 11.1
Oggi h: 10:20 molto_nuvoloso Molto Nuvoloso 21 14 64 1026 10 N 11.1
Oggi h: 09:50 molto_nuvoloso Molto Nuvoloso 20 14 68 1026 10 N 9.3
Oggi h: 09:20 molto_nuvoloso Molto Nuvoloso 19 13 68 1026 10 N 11.1
Oggi h: 08:50 molto_nuvoloso Molto Nuvoloso 19 13 68 1026 10 N 11.1
Oggi h: 08:20 molto_nuvoloso Molto Nuvoloso 19 13 68 1026 10 N 7.4
Oggi h: 07:50 molto_nuvoloso Molto Nuvoloso 18 13 72 1026 10 N/NO 11.1
Oggi h: 07:20 molto_nuvoloso Molto Nuvoloso 18 13 72 1026 10 N/NO 9.3
Oggi h: 06:50 molto_nuvoloso Molto Nuvoloso 18 13 72 1026 10 N/NO 7.4
Oggi h: 06:20 molto_nuvoloso Molto Nuvoloso 17 13 77 1026 10 N/NO 11.1
Oggi h: 05:50 molto_nuvoloso Molto Nuvoloso 17 14 82 1025 10 N/NO 7.4
Oggi h: 05:20 molto_nuvoloso Molto Nuvoloso 17 13 77 1025 10 N/NO 11.1
Oggi h: 04:50 molto_nuvoloso Molto Nuvoloso 17 13 77 1025 10 N/NO 11.1
Oggi h: 04:20 molto_nuvoloso Molto Nuvoloso 18 13 72 1025 10 N/NO 11.1
Oggi h: 03:50 molto_nuvoloso Molto Nuvoloso 18 14 77 1025 10 NO 9.3
Oggi h: 03:20 molto_nuvoloso Molto Nuvoloso 18 14 77 1025 10 N 7.4
Oggi h: 02:50 molto_nuvoloso Molto Nuvoloso 19 14 72 1025 10 N/NO 11.1
Oggi h: 02:20 molto_nuvoloso Molto Nuvoloso 19 14 72 1025 10 N/NO 9.3
Oggi h: 01:50 molto_nuvoloso Molto Nuvoloso 19 14 72 1025 10 N 7.4
Oggi h: 01:20 molto_nuvoloso Molto Nuvoloso 19 14 72 1025 10 N 9.3
Oggi h: 00:50 molto_nuvoloso Molto Nuvoloso 20 14 68 1025 10 N 9.3
Oggi h: 00:20 molto_nuvoloso Molto Nuvoloso 20 15 72 1025 10 N/NO 9.3
Ieri h: 23:50 molto_nuvoloso Molto Nuvoloso 20 15 72 1025 10 N/NO 11.1
Ieri h: 23:20 molto_nuvoloso Molto Nuvoloso 20 15 72 1025 10 N/NO 11.1
Ieri h: 22:50 molto_nuvoloso Molto Nuvoloso 21 15 68 1025 10 N/NO 9.3
Ieri h: 22:20 molto_nuvoloso Molto Nuvoloso 21 16 73 1025 10 N/NO 9.3
Ieri h: 21:50 molto_nuvoloso Molto Nuvoloso 21 16 73 1025 10 N/NO 7.4
Ieri h: 21:20 molto_nuvoloso Molto Nuvoloso 21 16 73 1025 10 N 5.5
Ieri h: 20:50 molto_nuvoloso Molto Nuvoloso 22 16 68 1025 10 N/NO 7.4
Ieri h: 20:20 molto_nuvoloso Molto Nuvoloso 22 15 64 1024 10 N/NO 7.4
Ieri h: 19:50 molto_nuvoloso Molto Nuvoloso 22 15 64 1024 10 N/NO 7.4
Ieri h: 19:20 molto_nuvoloso Molto Nuvoloso 23 16 64 1024 10 N 5.5
Ieri h: 18:50 molto_nuvoloso Molto Nuvoloso 23 15 60 1024 10 N/NO 7.4
Ieri h: 18:20 molto_nuvoloso Molto Nuvoloso 23 15 60 1024 10 N/NO 9.3
Ieri h: 17:50 molto_nuvoloso Molto Nuvoloso 23 15 60 1024 10 N/NO 9.3
Ieri h: 17:20 molto_nuvoloso Molto Nuvoloso 24 15 57 1024 10 N/NO 11.1
Ieri h: 16:50 molto_nuvoloso Molto Nuvoloso 24 15 57 1024 10 N 9.3